Jefferson, NC

4:37 AM EST on November 17, 2019 (GMT -0500)
Ashe County

Weather History for KGEV - July, 2019

Change the Weather History Date:

Tuesday, July 23, 2019

  Actual Average Record
Temperature  
Mean Temperature 62 °F -  
Max Temperature 67 °F 81 °F 90 °F (1983)
Min Temperature 58 °F 60 °F 51 °F (1966)
Degree Days  
Heating Degree Days 2    
Growing Degree Days 12 (Base 50)    
Moisture  
Dew Point 59 °F    
Average Humidity 91    
Maximum Humidity 100    
Minimum Humidity 69    
Precipitation  
Precipitation 0.71 in - - ()
Sea Level Pressure  
Sea Level Pressure 30.02 in    
Wind  
Wind Speed 4 mph (NNW)    
Max Wind Speed 12 mph    
Max Gust Speed 26 mph    
Visibility 8 miles    
Events Rain    
Averages and records for this station are not official NWS values.
T = Trace of Precipitation, MM = Missing Value Source: NWS Daily Summary

Daily Weather History Graph

Daily Weather History Graph

Search for Another Location

Airport or City:

Astronomy

Jul. 23, 2019 Rise Set
Actual Time 6:24 AM EDT 8:38 PM EDT
Civil Twilight 5:55 AM EDT 9:08 PM EDT
Nautical Twilight 5:20 AM EDT 9:43 PM EDT
Astronomical Twilight 4:41 AM EDT 10:22 PM EDT
Moon 12:08 AM EDT (7/23) 12:27 PM EDT (7/23)
Length of Visible Light 15h 12m
Length of Day
14h 14m
Waning Gibbous, 63% of the Moon is Illuminated
Jul 23
Waning Gibbous
Jul 24
Last Quarter
Jul 31
New
Aug 7
First Quarter
Aug 15
Full

Hourly Weather History & Observations

Time (EDT) Temp. Dew Point Humidity Pressure Visibility Wind Dir Wind Speed Gust Speed Precip Events Conditions
12:15 AM 67.3 °F 62.4 °F 84% 30.04 in 10.0 mi West 10.4 mph 17.3 mph N/A   Mostly Cloudy
12:35 AM 64.4 °F 63.5 °F 97% 30.04 in 10.0 mi Calm Calm - N/A   Overcast
12:55 AM 66.6 °F 62.4 °F 86% 30.04 in 10.0 mi Calm Calm - N/A   Mostly Cloudy
1:15 AM 65.1 °F 62.4 °F 91% 30.03 in 10.0 mi Calm Calm - N/A   Mostly Cloudy
1:35 AM 66.4 °F 62.1 °F 86% 30.02 in 10.0 mi NW 3.5 mph - N/A   Overcast
1:55 AM 66.2 °F 62.6 °F 88% 30.02 in 10.0 mi West 4.6 mph - N/A   Overcast
2:15 AM 66.2 °F 63.0 °F 89% 30.01 in 10.0 mi West 3.5 mph - N/A Rain Rain
2:35 AM 64.9 °F 63.3 °F 94% 30.02 in 10.0 mi Calm Calm - N/A Rain Light Rain
2:55 AM 65.8 °F 63.1 °F 91% 30.01 in 10.0 mi WNW 5.8 mph - N/A Rain Light Rain
3:15 AM 65.7 °F 63.5 °F 93% 30.00 in 10.0 mi West 3.5 mph - N/A   Light Drizzle
3:35 AM 63.7 °F 63.5 °F 99% 30.01 in 3.0 mi Calm Calm - N/A Rain Light Rain
3:55 AM 63.7 °F 63.5 °F 99% 30.00 in 1.2 mi Calm Calm - N/A Rain Light Rain
4:15 AM 63.5 °F 63.5 °F 100% 29.99 in 10.0 mi Calm Calm - N/A Rain Rain
4:35 AM 63.7 °F 63.5 °F 99% 29.99 in 2.0 mi Calm Calm - 0.01 in Rain Rain
4:55 AM 63.5 °F 63.5 °F 100% 29.99 in 7.0 mi Calm Calm - 0.03 in Rain Light Rain
5:15 AM 63.5 °F 63.5 °F 100% 29.98 in 1.5 mi Calm Calm - N/A Rain Light Rain
5:35 AM 63.1 °F 63.1 °F 100% 29.99 in 0.8 mi Calm Calm - N/A   Drizzle
5:55 AM 63.3 °F 63.3 °F 100% 29.98 in 1.0 mi Calm Calm - 0.01 in   Light Drizzle
6:15 AM 63.5 °F 63.5 °F 100% 29.99 in 3.0 mi Calm Calm - 0.01 in Rain Rain
6:35 AM 63.5 °F 63.5 °F 100% 29.99 in 3.0 mi Calm Calm - 0.15 in Rain Heavy Rain
6:55 AM 63.1 °F 63.1 °F 100% 29.99 in 0.8 mi Calm Calm - 0.20 in Rain Rain
7:15 AM 63.5 °F 63.5 °F 100% 29.99 in 0.2 mi Calm Calm - 0.01 in Rain Rain
7:35 AM 63.3 °F 63.3 °F 100% 29.99 in 0.5 mi Calm Calm - 0.03 in Rain Rain
7:55 AM 63.1 °F 63.1 °F 100% 29.99 in 0.5 mi Calm Calm - 0.09 in Rain Rain
8:15 AM 62.8 °F 62.8 °F 100% 30.01 in 2.5 mi Calm Calm - 0.06 in Rain Heavy Rain
8:35 AM 63.0 °F 63.0 °F 100% 30.00 in 1.8 mi Calm Calm - 0.13 in Rain Rain
8:55 AM 63.1 °F 63.1 °F 100% 30.01 in 0.5 mi ENE 3.5 mph - 0.16 in Rain Light Rain
9:15 AM 61.9 °F 61.9 °F 100% 30.00 in 7.0 mi NNE 4.6 mph - 0.03 in Rain Rain
9:35 AM 59.9 °F 59.9 °F 100% 30.00 in 5.0 mi North 6.9 mph - 0.07 in Rain Rain
9:55 AM 59.2 °F 59.2 °F 100% 30.00 in 7.0 mi North 6.9 mph - 0.10 in Rain Rain
10:15 AM 59.0 °F 59.0 °F 100% 30.01 in 10.0 mi NNW 6.9 mph - 0.02 in Rain Rain
10:35 AM 59.2 °F 59.0 °F 99% 30.01 in 10.0 mi North 5.8 mph - 0.04 in Rain Rain
10:55 AM 59.2 °F 59.0 °F 99% 30.01 in 10.0 mi North 5.8 mph - 0.06 in Rain Light Rain
11:15 AM 59.0 °F 58.6 °F 99% 30.02 in 10.0 mi North 5.8 mph - N/A Rain Light Rain
11:35 AM 59.7 °F 59.0 °F 97% 30.02 in 10.0 mi NNW 8.1 mph - 0.01 in Rain Light Rain
11:55 AM 59.4 °F 58.6 °F 97% 30.02 in 7.0 mi North 6.9 mph - 0.03 in Rain Light Rain
12:15 PM 59.7 °F 58.3 °F 95% 29.98 in 10.0 mi NNE 9.2 mph - 0.01 in Rain Light Rain
12:35 PM 59.9 °F 59.0 °F 97% 29.98 in 10.0 mi North 5.8 mph - 0.01 in   Light Drizzle
12:55 PM 59.4 °F 58.3 °F 96% 29.99 in 10.0 mi NNE 9.2 mph 17.3 mph 0.01 in Rain Light Rain
1:15 PM 59.0 °F 57.6 °F 95% 29.99 in 10.0 mi North 9.2 mph 16.1 mph 0.01 in Rain Light Rain
1:35 PM 58.6 °F 56.8 °F 94% 29.99 in 10.0 mi NNE 10.4 mph 26.5 mph 0.02 in Rain Light Rain
1:55 PM 58.3 °F 56.5 °F 94% 30.00 in 10.0 mi NNE 8.1 mph 16.1 mph 0.02 in Rain Light Rain
2:15 PM 58.5 °F 57.0 °F 95% 29.99 in 10.0 mi North 5.8 mph - N/A Rain Light Rain
2:35 PM 59.5 °F 57.7 °F 94% 30.00 in 10.0 mi North 8.1 mph 18.4 mph N/A   Scattered Clouds
2:55 PM 60.8 °F 57.6 °F 89% 29.99 in 10.0 mi North 11.5 mph 19.6 mph N/A   Scattered Clouds
3:15 PM 61.3 °F 57.7 °F 88% 30.00 in 10.0 mi North 8.1 mph 16.1 mph N/A   Mostly Cloudy
3:35 PM 62.1 °F 57.4 °F 85% 29.99 in 10.0 mi NNW 8.1 mph - N/A   Overcast
7:15 PM 65.3 °F 54.9 °F 69% 30.04 in 10.0 mi NW 4.6 mph - N/A   Clear
7:35 PM 64.4 °F 54.5 °F 70% 30.04 in 10.0 mi NNW 5.8 mph - N/A   Scattered Clouds
7:55 PM 63.7 °F 54.3 °F 72% 30.05 in 10.0 mi NNW 3.5 mph - N/A   Scattered Clouds
8:15 PM 62.6 °F 54.1 °F 74% 30.05 in 10.0 mi NW 4.6 mph - N/A   Clear
8:35 PM 61.2 °F 54.0 °F 77% 30.04 in 10.0 mi NW 4.6 mph - N/A   Clear
8:55 PM 60.8 °F 53.6 °F 77% 30.06 in 10.0 mi NW 5.8 mph - N/A   Clear
9:15 PM 60.8 °F 53.6 °F 77% 30.07 in 10.0 mi NW 5.8 mph - N/A   Scattered Clouds
9:35 PM 60.6 °F 53.2 °F 77% 30.07 in 10.0 mi NW 5.8 mph - N/A   Scattered Clouds
9:55 PM 60.4 °F 53.1 °F 77% 30.08 in 10.0 mi NW 6.9 mph - N/A   Clear
10:15 PM 60.4 °F 53.2 °F 77% 30.08 in 10.0 mi NW 6.9 mph - N/A   Clear
10:35 PM 60.3 °F 53.1 °F 77% 30.08 in 10.0 mi NW 6.9 mph - N/A   Clear
10:55 PM 60.3 °F 53.1 °F 77% 30.09 in 10.0 mi NW 5.8 mph - N/A   Clear
11:15 PM 59.2 °F 53.6 °F 82% 30.09 in 10.0 mi NW 6.9 mph - N/A   Clear
11:35 PM 59.2 °F 53.8 °F 82% 30.08 in 10.0 mi NW 6.9 mph - N/A   Clear
11:55 PM 59.2 °F 53.6 °F 82% 30.08 in 10.0 mi NNW 10.4 mph - N/A   Clear